SAS166 ESGG-ESSA

Flight info

Callsign SAS166
Flight time 0h 44m
Altitude 29000
Route LABAN N873 ARS T317 ELTOK
Aircraft B738/M-SDE2E3FGHIRWXY/LB1

Departure

Time 2026-05-04 07:43
Airport Göteborg Landvetter Airport (ESGG)

Arrival

Time 2026-05-04 08:28
Airport Stockholm-Arlanda Airport (ESSA)
Time Latitude Longitude Altitude Speed Heading
2026-05-04 07:17 57.67052 12.29556 510 ft 0 kts 116°
2026-05-04 07:38 57.67056 12.29542 510 ft 2 kts 115°
2026-05-04 07:39 57.67063 12.29514 510 ft 2 kts 113°
2026-05-04 07:39 57.67069 12.29485 510 ft 2 kts 108°
2026-05-04 07:39 57.67072 12.29455 510 ft 2 kts 86°
2026-05-04 07:39 57.67066 12.29431 510 ft 1 kts 27°
2026-05-04 07:40 57.67064 12.29429 510 ft 0 kts 26°
2026-05-04 07:40 57.67075 12.29440 510 ft 4 kts 26°
2026-05-04 07:41 57.67115 12.29476 511 ft 9 kts 26°
2026-05-04 07:41 57.67186 12.29514 511 ft 12 kts 337°
2026-05-04 07:41 57.67250 12.29393 512 ft 14 kts 324°
2026-05-04 07:41 57.67330 12.29438 512 ft 14 kts 43°
2026-05-04 07:42 57.67416 12.29524 513 ft 15 kts 25°
2026-05-04 07:42 57.67516 12.29582 514 ft 16 kts 349°
2026-05-04 07:42 57.67584 12.29430 514 ft 16 kts 290°
2026-05-04 07:42 57.67584 12.29222 514 ft 16 kts 257°
2026-05-04 07:43 57.67499 12.29087 512 ft 18 kts 204°
2026-05-04 07:43 57.67212 12.28823 512 ft 85 kts 206°
2026-05-04 07:43 57.66445 12.28133 522 ft 153 kts 204°
2026-05-04 07:43 57.65368 12.27289 1114 ft 177 kts 204°
2026-05-04 07:44 57.64298 12.26399 2413 ft 160 kts 210°
2026-05-04 07:44 57.63228 12.25430 3086 ft 185 kts 206°
2026-05-04 07:44 57.61843 12.25343 3403 ft 219 kts 163°
2026-05-04 07:44 57.60450 12.26665 3995 ft 227 kts 160°
2026-05-04 07:45 57.58988 12.27803 4656 ft 229 kts 163°
2026-05-04 07:45 57.57599 12.29259 5274 ft 241 kts 137°
2026-05-04 07:45 57.56820 12.32042 5825 ft 254 kts 100°
2026-05-04 07:45 57.57036 12.35393 6185 ft 270 kts 65°
2026-05-04 07:46 57.57835 12.38709 6560 ft 291 kts 64°
2026-05-04 07:46 57.58644 12.42204 7272 ft 297 kts 65°
2026-05-04 07:46 57.59451 12.45791 8097 ft 301 kts 66°
2026-05-04 07:46 57.60236 12.49422 8954 ft 303 kts 66°
2026-05-04 07:47 57.61024 12.53131 9760 ft 308 kts 66°
2026-05-04 07:47 57.61847 12.56892 10294 ft 322 kts 61°
2026-05-04 07:47 57.63295 12.60200 10384 ft 339 kts 32°
2026-05-04 07:49 57.77855 12.78586 15038 ft 378 kts 30°
2026-05-04 07:49 57.80033 12.81387 15693 ft 382 kts 30°
2026-05-04 07:49 57.82240 12.84228 16348 ft 386 kts 30°
2026-05-04 07:50 57.84464 12.87094 16990 ft 390 kts 30°
2026-05-04 07:50 57.86712 12.89995 17633 ft 394 kts 30°
2026-05-04 07:50 57.88980 12.92927 18249 ft 398 kts 30°
2026-05-04 07:50 57.91244 12.95857 18784 ft 402 kts 30°
2026-05-04 07:51 57.93559 12.98858 19314 ft 406 kts 31°
2026-05-04 07:51 57.95895 13.01892 19850 ft 410 kts 31°
2026-05-04 07:51 57.98253 13.04959 20381 ft 414 kts 31°
2026-05-04 07:51 58.00630 13.08056 20915 ft 417 kts 31°
2026-05-04 07:52 58.03012 13.11168 21563 ft 417 kts 31°
2026-05-04 07:52 58.05394 13.14284 22287 ft 415 kts 31°
2026-05-04 07:52 58.07760 13.17383 22956 ft 415 kts 31°
2026-05-04 07:52 58.10134 13.20496 23525 ft 416 kts 31°
2026-05-04 07:53 58.12512 13.23618 24039 ft 416 kts 31°
2026-05-04 07:54 58.26711 13.51075 24770 ft 419 kts 48°
2026-05-04 07:55 58.28592 13.55305 24762 ft 419 kts 48°
2026-05-04 07:55 58.30480 13.59532 24760 ft 419 kts 47°
2026-05-04 07:55 58.32371 13.63762 24772 ft 420 kts 47°
2026-05-04 07:55 58.34264 13.68000 24768 ft 420 kts 47°
2026-05-04 07:56 58.36157 13.72242 24762 ft 421 kts 48°
2026-05-04 07:56 58.38053 13.76501 24759 ft 421 kts 48°
2026-05-04 07:56 58.39949 13.80767 24767 ft 422 kts 48°
2026-05-04 07:56 58.41839 13.85030 24769 ft 422 kts 48°
2026-05-04 07:57 58.43737 13.89319 24762 ft 422 kts 48°
2026-05-04 07:57 58.45634 13.93612 24754 ft 423 kts 48°
2026-05-04 07:57 58.47528 13.97909 24753 ft 423 kts 48°
2026-05-04 07:57 58.49423 14.02216 24759 ft 425 kts 48°
2026-05-04 07:58 58.51349 14.06598 24780 ft 437 kts 48°
2026-05-04 07:58 58.53335 14.11124 24772 ft 450 kts 49°
2026-05-04 07:58 58.55370 14.15775 24746 ft 461 kts 49°
2026-05-04 07:58 58.57449 14.20534 24778 ft 470 kts 49°
2026-05-04 07:59 58.59564 14.25386 24753 ft 480 kts 49°
2026-05-04 07:59 58.61723 14.30349 24751 ft 487 kts 49°
2026-05-04 07:59 58.63892 14.35348 24761 ft 488 kts 49°
2026-05-04 07:59 58.66062 14.40364 24743 ft 488 kts 49°
2026-05-04 08:00 58.68227 14.45378 24743 ft 487 kts 49°
2026-05-04 08:00 58.70399 14.50417 24801 ft 492 kts 49°
2026-05-04 08:00 58.72580 14.55488 25324 ft 489 kts 49°
2026-05-04 08:02 58.87398 14.90241 26741 ft 456 kts 50°
2026-05-04 08:02 58.89371 14.94909 26706 ft 441 kts 50°
2026-05-04 08:02 58.91278 14.99430 26720 ft 427 kts 50°
2026-05-04 08:03 58.93124 15.03813 26644 ft 416 kts 50°
2026-05-04 08:03 58.94949 15.08153 26240 ft 414 kts 50°
2026-05-04 08:03 58.96746 15.12433 26058 ft 406 kts 50°
2026-05-04 08:03 58.98532 15.16694 25607 ft 407 kts 50°
2026-05-04 08:04 59.00310 15.20944 25318 ft 403 kts 50°
2026-05-04 08:04 59.02072 15.25164 24958 ft 402 kts 50°
2026-05-04 08:04 59.03832 15.29388 24594 ft 400 kts 50°
2026-05-04 08:04 59.05577 15.33584 24264 ft 398 kts 50°
2026-05-04 08:05 59.07314 15.37766 23911 ft 397 kts 49°
2026-05-04 08:05 59.09046 15.41946 23584 ft 395 kts 50°
2026-05-04 08:05 59.10763 15.46097 23233 ft 394 kts 49°
2026-05-04 08:05 59.12482 15.50260 22828 ft 393 kts 49°
2026-05-04 08:06 59.14188 15.54399 22456 ft 391 kts 49°
2026-05-04 08:06 59.15883 15.58519 22122 ft 388 kts 49°
2026-05-04 08:06 59.17564 15.62608 21772 ft 385 kts 49°
2026-05-04 08:06 59.19211 15.66622 21437 ft 383 kts 49°
2026-05-04 08:08 59.30551 15.94483 19174 ft 367 kts 49°
2026-05-04 08:08 59.32134 15.98397 18850 ft 366 kts 49°
2026-05-04 08:10 59.44495 16.29219 16223 ft 351 kts 50°
2026-05-04 08:11 59.45990 16.32988 15912 ft 349 kts 50°
2026-05-04 08:11 59.48953 16.40472 15301 ft 345 kts 50°
2026-05-04 08:11 59.50421 16.44189 15002 ft 343 kts 50°
2026-05-04 08:12 59.51885 16.47900 14676 ft 343 kts 50°
2026-05-04 08:12 59.53344 16.51602 14364 ft 341 kts 50°
2026-05-04 08:12 59.54793 16.55284 14075 ft 339 kts 50°
2026-05-04 08:12 59.56231 16.58948 13763 ft 337 kts 50°
2026-05-04 08:13 59.57665 16.62605 13428 ft 336 kts 50°
2026-05-04 08:13 59.59170 16.66017 13071 ft 332 kts 37°
2026-05-04 08:13 59.60991 16.68659 13019 ft 318 kts 30°
2026-05-04 08:13 59.62817 16.71136 12561 ft 321 kts 31°
2026-05-04 08:14 59.64630 16.73640 12410 ft 314 kts 31°
2026-05-04 08:14 59.66425 16.76150 11947 ft 318 kts 31°
2026-05-04 08:14 59.68203 16.78663 11767 ft 312 kts 32°
2026-05-04 08:16 59.79852 16.95328 9806 ft 301 kts 32°
2026-05-04 08:16 59.81490 16.97850 9551 ft 300 kts 43°
2026-05-04 08:16 59.82529 17.01460 9231 ft 303 kts 74°
2026-05-04 08:17 59.82880 17.05557 8912 ft 302 kts 84°
2026-05-04 08:17 59.83086 17.09709 8645 ft 300 kts 84°
2026-05-04 08:17 59.83303 17.13841 8319 ft 301 kts 84°
2026-05-04 08:17 59.83535 17.17972 8022 ft 298 kts 83°
2026-05-04 08:19 59.83253 17.40858 6119 ft 269 kts 91°
2026-05-04 08:19 59.83228 17.44528 5834 ft 263 kts 92°
2026-05-04 08:20 59.83181 17.48131 5557 ft 258 kts 93°
2026-05-04 08:20 59.83118 17.51672 5303 ft 256 kts 93°
2026-05-04 08:20 59.83044 17.55179 5246 ft 250 kts 94°
2026-05-04 08:20 59.82963 17.58670 5077 ft 262 kts 94°
2026-05-04 08:21 59.82871 17.62347 4818 ft 266 kts 94°
2026-05-04 08:21 59.82778 17.65971 4675 ft 257 kts 94°
2026-05-04 08:21 59.82688 17.69411 4604 ft 242 kts 94°
2026-05-04 08:21 59.82600 17.72670 4471 ft 228 kts 94°
2026-05-04 08:22 59.82517 17.75718 4340 ft 216 kts 94°
2026-05-04 08:22 59.82435 17.78652 4267 ft 211 kts 95°
2026-05-04 08:24 59.80983 17.97280 2856 ft 177 kts 169°
2026-05-04 08:24 59.79798 17.97184 2753 ft 172 kts 198°
2026-05-04 08:24 59.78609 17.96690 2608 ft 178 kts 193°
2026-05-04 08:24 59.77402 17.96275 2366 ft 172 kts 194°
2026-05-04 08:25 59.76257 17.95863 2112 ft 163 kts 193°
2026-05-04 08:25 59.75165 17.95466 1900 ft 155 kts 193°
2026-05-04 08:25 59.74130 17.95092 1742 ft 148 kts 193°
2026-05-04 08:25 59.73107 17.94720 1487 ft 150 kts 193°
2026-05-04 08:26 59.72086 17.94349 1277 ft 150 kts 192°
2026-05-04 08:27 59.65143 17.91836 103 ft 104 kts 189°
2026-05-04 08:28 59.64616 17.91739 107 ft 34 kts 163°
2026-05-04 08:28 59.64447 17.91902 110 ft 24 kts 126°
2026-05-04 08:28 59.64373 17.92191 109 ft 23 kts 109°
2026-05-04 08:28 59.64421 17.92448 111 ft 16 kts 70°
2026-05-04 08:29 59.64457 17.92584 111 ft 0 kts 54°
2026-05-04 08:31 59.64471 17.92632 111 ft 0 kts 59°